K1DRD Weather Reports


time (UTC)temp
C
wind
direction
speed
KPH
gust
KPH
rain 1hr
cm
rain 24hr
cm
rain mn
cm
humidity
%
barometer
mb
20260503025506 9 268 0.0 1.6 0.00 0.15 0.15 85 1010.5
20260503025008 9 268 1.6 3.2 0.00 0.15 0.15 86 1010.6
20260503024503 9 190 0.0 3.2 0.00 0.15 0.15 85 1010.5
20260503024003 9 146 0.0 0.0 0.00 0.15 0.15 85 1010.4
20260503023504 9 146 0.0 0.0 0.00 0.15 0.15 85 1010.4
20260503023005 9 146 0.0 0.0 0.00 0.15 0.15 85 1010.3
20260503022503 9 146 0.0 0.0 0.00 0.15 0.15 85 1010.3
20260503022007 9 146 0.0 0.0 0.00 0.15 0.15 85 1010.4
20260503021507 9 146 0.0 0.0 0.00 0.15 0.15 85 1010.4
20260503021004 9 146 0.0 0.0 0.00 0.15 0.15 85 1010.5
20260503020508 9 146 0.0 0.0 0.00 0.15 0.15 85 1010.6
20260503020014 9 146 0.0 0.0 0.00 0.15 0.15 85 1010.6
20260503015505 9 146 0.0 0.0 0.00 0.15 0.15 85 1010.8
20260503015005 9 146 0.0 0.0 0.00 0.15 0.15 84 1010.9
20260503014519 9 146 0.0 0.0 0.00 0.15 0.15 85 1011.0
20260503014008 9 146 0.0 0.0 0.00 0.15 0.15 85 1011.0
20260503013513 9 146 0.0 0.0 0.00 0.15 0.15 85 1010.9
20260503013003 9 146 0.0 3.2 0.00 0.15 0.15 85 1010.9
20260503012503 9 146 0.0 3.2 0.00 0.15 0.15 85 1010.9
20260503012002 9 146 0.0 1.6 0.00 0.15 0.15 85 1010.8
20260503011509 9 146 0.0 0.0 0.00 0.15 0.15 85 1010.7
20260503011004 9 146 0.0 0.0 0.00 0.15 0.15 85 1010.6
20260503010503 9 146 0.0 0.0 0.00 0.15 0.15 85 1010.2
20260503010013 8 146 0.0 0.0 0.00 0.15 0.15 85 1010.2
20260503005503 8 146 0.0 0.0 0.00 0.15 0.15 85 1010.1
20260503005004 8 146 0.0 0.0 0.00 0.15 0.15 85 1010.1
20260503004517 9 146 0.0 0.0 0.00 0.15 0.15 84 1010.0
20260503004009 9 146 0.0 0.0 0.00 0.15 0.15 84 1010.0
20260503003504 9 146 0.0 0.0 0.00 0.15 0.15 84 1010.1
20260503003021 9 146 0.0 0.0 0.00 0.15 0.15 84 1010.0
20260503002508 9 146 0.0 0.0 0.00 0.15 0.15 84 1010.1
20260503002008 9 146 0.0 0.0 0.00 0.15 0.15 84 1010.1
20260503001502 9 146 0.0 0.0 0.00 0.15 0.15 83 1010.1
20260503001005 9 146 0.0 0.0 0.00 0.15 0.15 83 1010.0
20260503000503 9 146 0.0 3.2 0.00 0.15 0.15 83 1009.9
20260503000009 9 146 0.0 3.2 0.00 0.15 0.15 83 1009.9
20260502235503 9 141 0.0 3.2 0.00 0.15 0.15 83 1010.0
20260502235003 9 118 0.0 3.2 0.00 0.15 0.15 83 1010.0
20260502234513 10 165 0.0 3.2 0.00 0.15 0.15 83 1010.0
20260502234006 10 165 0.0 3.2 0.00 0.15 0.15 82 1009.9
20260502233506 10 169 0.0 3.2 0.00 0.15 0.15 82 1009.8
20260502233016 10 163 0.0 3.2 0.00 0.15 0.15 82 1009.9
20260502232507 10 158 0.0 0.0 0.00 0.15 0.15 81 1009.9
20260502232005 10 158 0.0 3.2 0.00 0.15 0.15 81 1009.9
20260502231523 10 158 0.0 3.2 0.00 0.15 0.15 81 1009.9
20260502231008 10 194 0.0 3.2 0.00 0.15 0.15 80 1009.9
20260502230503 10 299 0.0 3.2 0.00 0.15 0.15 80 1009.9
20260502230008 10 299 0.0 3.2 0.00 0.15 0.15 80 1009.9
20260502225503 10 299 0.0 3.2 0.00 0.15 0.15 80 1009.9
20260502225003 10 299 0.0 1.6 0.00 0.15 0.15 81 1009.9
20260502224513 10 299 0.0 1.6 0.00 0.15 0.15 81 1009.8
20260502224004 10 299 0.0 0.0 0.00 0.15 0.15 81 1009.8
20260502223506 10 299 0.0 3.2 0.00 0.15 0.15 81 1009.7
20260502223016 10 300 0.0 3.2 0.00 0.15 0.15 81 1009.8
20260502222507 10 299 0.0 1.6 0.00 0.15 0.15 81 1009.8
20260502222005 10 299 0.0 0.0 0.00 0.15 0.15 80 1009.8
20260502221524 10 299 0.0 0.0 0.00 0.15 0.15 81 1009.9
20260502221006 10 299 0.0 1.6 0.00 0.15 0.15 80 1009.9
20260502220507 10 299 0.0 3.2 0.00 0.15 0.15 80 1009.9
20260502220026 10 299 0.0 3.2 0.00 0.15 0.15 79 1009.9
20260502215508 10 299 0.0 3.2 0.00 0.15 0.15 82 1009.9
20260502215003 10 300 0.0 3.2 0.00 0.15 0.15 81 1009.9
20260502214509 10 300 0.0 3.2 0.00 0.15 0.15 79 1010.0
20260502214004 10 300 1.6 3.2 0.00 0.15 0.15 79 1010.0
20260502213503 10 305 1.6 3.2 0.00 0.15 0.15 78 1009.9
20260502213011 10 281 1.6 3.2 0.00 0.15 0.15 77 1010.0
20260502212503 11 266 1.6 3.2 0.00 0.15 0.15 76 1010.0
20260502212007 11 255 1.6 6.4 0.00 0.15 0.15 75 1010.0
20260502211518 11 266 1.6 6.4 0.00 0.15 0.15 74 1009.9
20260502211008 11 276 4.8 11.3 0.00 0.15 0.15 73 1009.9
20260502210508 11 294 4.8 11.3 0.00 0.15 0.15 71 1009.8
20260502210024 12 291 4.8 11.3 0.00 0.15 0.15 67 1009.8
20260502205509 12 248 3.2 8.0 0.00 0.15 0.15 65 1009.7
20260502205008 12 27 1.6 8.0 0.00 0.15 0.15 64 1009.6
20260502204525 12 257 3.2 8.0 0.00 0.15 0.15 64 1009.7
20260502204009 12 169 3.2 8.0 0.00 0.15 0.15 62 1009.5
20260502203503 13 278 1.6 8.0 0.00 0.15 0.15 62 1009.6
20260502203012 13 248 1.6 8.0 0.00 0.15 0.15 61 1009.5
20260502202503 13 86 3.2 8.0 0.00 0.15 0.15 60 1009.6
20260502202003 13 242 1.6 8.0 0.00 0.15 0.15 60 1009.7
20260502201516 13 102 1.6 9.7 0.00 0.15 0.15 59 1009.7
20260502201003 13 231 1.6 9.7 0.00 0.15 0.15 58 1009.7
20260502200512 13 243 3.2 9.7 0.00 0.15 0.15 58 1009.8
20260502200021 13 193 3.2 9.7 0.00 0.15 0.15 57 1009.7
20260502195508 13 231 3.2 12.9 0.00 0.15 0.15 55 1009.8
20260502195007 13 84 1.6 12.9 0.00 0.15 0.15 57 1009.7
20260502194522 13 300 3.2 12.9 0.00 0.15 0.15 56 1009.8
20260502194007 13 266 3.2 9.7 0.00 0.15 0.15 55 1009.8
20260502193513 13 158 3.2 8.0 0.00 0.15 0.15 57 1010.0
20260502193028 13 286 1.6 6.4 0.00 0.15 0.15 60 1010.1
20260502192503 12 274 3.2 9.7 0.00 0.15 0.15 61 1010.1
20260502192007 12 325 1.6 9.7 0.00 0.15 0.15 63 1010.3
20260502191513 13 242 1.6 9.7 0.00 0.15 0.15 64 1010.3
20260502191005 13 96 1.6 11.3 0.00 0.15 0.15 66 1010.5
20260502190509 12 85 3.2 11.3 0.00 0.15 0.15 68 1010.4
20260502190024 12 63 3.2 11.3 0.00 0.15 0.15 67 1010.6
20260502185505 12 252 1.6 9.7 0.00 0.15 0.15 68 1010.4
20260502185007 12 94 3.2 9.7 0.00 0.15 0.15 69 1010.6
20260502184523 12 237 1.6 8.0 0.00 0.15 0.15 68 1010.6
20260502184009 12 58 3.2 9.7 0.00 0.15 0.15 67 1010.7
20260502183508 12 92 1.6 9.7 0.00 0.15 0.15 67 1010.7
20260502183026 12 192 1.6 9.7 0.00 0.15 0.15 68 1010.6
20260502182509 12 340 3.2 12.9 0.00 0.15 0.15 67 1010.4
20260502182010 12 250 1.6 12.9 0.00 0.15 0.15 67 1010.6
20260502181526 12 262 1.6 9.7 0.00 0.15 0.15 67 1010.6
20260502181004 12 243 4.8 9.7 0.00 0.15 0.15 66 1010.7
20260502180504 12 125 3.2 11.3 0.00 0.15 0.15 63 1010.7
20260502170507 12 68 1.6 4.8 0.00 0.15 0.15 63 1011.1
20260502164004 12 304 0.0 4.8 0.00 0.15 0.15 63 1011.3
20260502163504 12 209 1.6 4.8 0.00 0.15 0.15 65 1011.2
20260502163034 12 302 1.6 4.8 0.00 0.15 0.15 70 1011.2
20260502162505 12 347 0.0 3.2 0.00 0.15 0.15 70 1011.2
20260502162010 12 18 0.0 3.2 0.00 0.15 0.15 70 1011.2
20260502161507 12 239 1.6 4.8 0.00 0.15 0.15 69 1011.2
20260502161003 12 174 1.6 9.7 0.00 0.15 0.15 71 1011.3
20260502160503 12 288 0.0 9.7 0.00 0.15 0.15 72 1011.5
20260502152011 11 314 1.6 4.8 0.00 0.15 0.15 79 1012.0
20260502151527 11 338 1.6 4.8 0.00 0.15 0.15 79 1012.2
20260502151006 11 195 0.0 3.2 0.00 0.15 0.15 82 1012.0
20260502150510 11 192 0.0 3.2 0.00 0.15 0.15 81 1011.8
20260502130506 8 322 0.0 3.2 0.03 0.03 0.03 81 1013.0
20260502123507 8 300 3.2 4.8 0.00 0.00 0.00 83 1013.0
20260502123013 8 285 1.6 4.8 0.00 0.00 0.00 83 1013.0
20260502122507 8 288 3.2 4.8 0.00 0.00 0.00 84 1012.8
20260502122012 9 281 1.6 3.2 0.00 0.00 0.00 84 1012.6
20260502121516 8 274 1.6 4.8 0.00 0.00 0.00 83 1012.3
20260502121007 9 311 1.6 4.8 0.00 0.00 0.00 82 1012.1
20260502120507 9 286 3.2 4.8 0.00 0.00 0.00 81 1012.3
20260502115513 9 272 1.6 3.2 0.00 0.00 0.00 80 1011.9
20260502115011 9 294 1.6 3.2 0.00 0.00 0.00 81 1011.8
20260502114526 8 283 0.0 3.2 0.00 0.00 0.00 81 1011.9
20260502114007 8 286 0.0 3.2 0.00 0.00 0.00 82 1012.1
20260502113507 8 299 0.0 3.2 0.00 0.00 0.00 82 1012.0
20260502113028 8 195 0.0 3.2 0.00 0.00 0.00 82 1012.1
20260502112507 8 200 0.0 3.2 0.00 0.00 0.00 82 1012.2
20260502112007 8 260 1.6 3.2 0.00 0.00 0.00 82 1012.2
20260502111515 8 136 0.0 3.2 0.00 0.00 0.00 82 1011.9
20260502111006 8 136 0.0 3.2 0.00 0.00 0.00 82 1011.9
20260502110504 8 38 0.0 3.2 0.00 0.00 0.00 82 1011.8
20260502110018 8 38 0.0 3.2 0.00 0.00 0.00 81 1011.9
20260502105506 8 38 0.0 3.2 0.00 0.00 0.00 80 1011.7
20260502105008 8 171 0.0 3.2 0.00 0.00 0.00 79 1011.8
20260502104521 8 171 0.0 3.2 0.00 0.00 0.00 78 1011.7
20260502104008 8 171 0.0 3.2 0.00 0.00 0.00 78 1011.5
20260502103510 8 184 0.0 3.2 0.00 0.00 0.00 77 1011.7
20260502103031 8 184 0.0 4.8 0.00 0.00 0.00 77 1011.5
20260502102507 8 184 0.0 3.2 0.00 0.00 0.00 77 1011.5
20260502102021 8 125 0.0 3.2 0.00 0.00 0.00 78 1011.4
20260502101527 8 125 0.0 3.2 0.00 0.00 0.00 78 1011.4
20260502101015 8 116 0.0 3.2 0.00 0.00 0.00 78 1011.3
20260502100503 8 116 0.0 3.2 0.00 0.00 0.00 79 1011.2
20260502091527 8 78 0.0 3.2 0.00 0.00 0.00 79 1011.0
20260502091013 8 78 0.0 3.2 0.00 0.00 0.00 77 1011.0
20260502090506 8 78 0.0 3.2 0.00 0.00 0.00 76 1011.1
20260502071504 8 192 0.0 3.2 0.00 0.00 0.00 75 1011.3
20260502071003 8 145 0.0 3.2 0.00 0.00 0.00 74 1011.1
20260502070504 9 130 0.0 3.2 0.00 0.00 0.00 72 1011.1
20260502070008 9 130 0.0 3.2 0.00 0.00 0.00 69 1011.2
20260502065504 9 169 0.0 3.2 0.00 0.00 0.00 69 1011.5
20260502065007 9 157 0.0 3.2 0.00 0.00 0.00 69 1011.8
20260502064508 9 157 0.0 3.2 0.00 0.00 0.00 68 1011.8
20260502064003 9 80 0.0 3.2 0.00 0.00 0.00 68 1011.8
20260502063500 8 79 0.0 0.0 0.00 0.03 0.00 69 1011.6
20260502063007 8 79 0.0 0.0 0.00 0.03 0.00 69 1011.5
20260502062503 8 79 0.0 0.0 0.00 0.03 0.00 69 1011.3
20260502062001 8 79 0.0 0.0 0.00 0.05 0.00 69 1011.3
20260502061508 8 79 0.0 3.2 0.00 0.05 0.00 69 1011.3
20260502061004 8 79 0.0 3.2 0.00 0.05 0.00 69 1011.3
20260502060503 8 79 0.0 3.2 0.00 0.08 0.00 70 1011.4
20260502060005 8 79 0.0 3.2 0.00 0.08 0.00 69 1011.4
20260502055503 8 78 0.0 3.2 0.00 0.08 0.00 69 1011.3
20260502055004 8 78 0.0 3.2 0.00 0.08 0.00 70 1011.2
20260502054520 7 78 0.0 1.6 0.00 0.08 0.00 69 1011.4
20260502054004 7 78 0.0 0.0 0.00 0.08 0.00 69 1011.4
20260502053506 7 78 0.0 0.0 0.00 0.08 0.00 69 1011.5
20260502053009 7 78 0.0 0.0 0.00 0.08 0.00 70 1011.4
20260502052504 7 78 0.0 3.2 0.00 0.08 0.00 70 1011.4
20260502052004 7 78 0.0 3.2 0.00 0.08 0.00 69 1011.5
20260502051513 7 78 0.0 3.2 0.00 0.08 0.00 69 1011.5
20260502051003 7 78 0.0 3.2 0.00 0.08 0.00 70 1011.4
20260502050505 7 77 0.0 0.0 0.00 0.08 0.00 70 1011.4
20260502050022 7 77 0.0 0.0 0.00 0.08 0.00 69 1011.4
20260502045504 7 77 0.0 3.2 0.00 0.08 0.00 70 1011.5
20260502045002 8 77 0.0 3.2 0.00 0.08 0.00 68 1011.3
20260502044507 8 77 0.0 0.0 0.00 0.08 0.00 68 1011.4
20260502044004 8 77 0.0 1.6 0.00 0.08 0.00 67 1011.6
20260502043505 7 77 0.0 1.6 0.00 0.08 0.00 67 1011.7
20260502043010 7 77 0.0 0.0 0.00 0.08 0.00 66 1011.7
20260502042506 7 77 0.0 0.0 0.00 0.08 0.00 67 1011.7
20260502042004 7 77 0.0 0.0 0.00 0.08 0.00 66 1011.6
20260502041517 7 77 0.0 0.0 0.00 0.08 0.00 68 1011.6
20260502041003 8 77 0.0 0.0 0.00 0.08 0.00 67 1011.6
20260502040503 8 77 0.0 0.0 0.00 0.08 0.00 66 1011.6
20260502040013 8 77 0.0 0.0 0.00 0.08 0.00 66 1011.6
20260502035503 8 77 0.0 0.0 0.00 0.08 0.08 67 1011.6
20260502035006 8 77 0.0 3.2 0.00 0.08 0.08 68 1011.6
20260502034513 8 77 0.0 3.2 0.00 0.08 0.08 69 1011.6
20260502034005 8 77 0.0 0.0 0.00 0.08 0.08 69 1011.6
20260502033506 8 77 0.0 0.0 0.00 0.08 0.08 69 1011.7
20260502033017 8 75 0.0 0.0 0.00 0.08 0.08 69 1011.7
20260502032504 8 75 0.0 0.0 0.00 0.08 0.08 69 1011.6
20260502032006 8 75 0.0 3.2 0.00 0.08 0.08 69 1011.5
20260502031510 8 75 0.0 3.2 0.00 0.08 0.08 69 1011.5
20260502031003 8 230 0.0 1.6 0.00 0.08 0.08 69 1011.4
20260502030504 8 266 0.0 0.0 0.00 0.08 0.08 67 1011.1
20260502030022 8 266 0.0 0.0 0.00 0.08 0.08 66 1011.1